Tracking 19730 objects as of 27-Jun-2019
HD Live streaming from Space Station
objects crossing your sky now

THOR ABLESTAR R/B

Track THOR ABLESTAR R/B now!
10-day predictions


NORAD ID: 204
Int'l Code: 1961-031C
Perigee: 952.1 km
Apogee: 1,098.3 km
Inclination: 32.4 °
Period: 105.5 minutes
Semi major axis: 7396 km
RCS: 3.5845 m2 (large)
Launch date: November 15, 1961
Source: United States (US)
Launch site: AIR FORCE EASTERN TEST RANGE (AFETR)

Note: This is a ROCKET BODY
aabbcc
Your satellite tracking list
Your tracking list is empty




NASA's NSSDC Master Catalog

Two Line Element Set (TLE):
1   204U 61031C   19177.51430037 +.00000032 +00000-0 +12577-4 0  9996
2   204 032.4411 243.2020 0098820 003.4956 356.6340 13.64866974874730
Source of the keplerian elements: AFSPC